Location: Unspecified
(0.0000°N, 0.0000°E)
Time: 20:21:29
(UTC+00:00)

Vanguard 3 - Pass Details

Date: 15 October 2022
Orbit: 507 x 3241 km, 33.3° (Epoch: 30 November)

Event Time Altitude Azimuth Distance (km) Brightness Sun altitude
Rises 23:09:36 0° 229° (SW) 7,101 12.1 -77.4°
Reaches altitude 10° 23:14:52 10° 225° (SW) 5,880 11.6 -78.3°
Enters shadow 23:17:50 17° 223° (SW) 5,165 11.2 -78.8°
